www.pogodaiklimat.ru

АРХИВ ПОГОДЫ в Лос-Анджелесе

Время (UTC), дата Ветер
(напр.,м/с)
 
Видим.   Явления Облачность Т
(С)
Тd
(С)
f
(%)
Тe
(С)
Тes
(С)
Комфортность

P
(гПа)

Po
(гПа)
Тmin
(С)
Tmax
(С)
R
(мм)
SD
(см)
14:53 18.09 З   13 км    8/8 480 м  +18.9  +16.1  84  +20  +20    1013.9  1009.5         
15:53 18.09 З  13 км    8/8 480 м  +19.4  +16.1  81  +21  +22  комфорт  1014.1  1009.5         
16:53 18.09 ЮЗ  13 км    8/8 480 м  +20.0  +16.1  78  +23  +23  комфорт  1014.7  1010.2         
17:53 18.09 ЮЗ  13 км    8/8 480 м  +22.0  +16.0  69  +26  +27  душно  1014.6  1010.2  +17.8       
18:53 18.09 З   13 км    8/8 480 м  +21.1  +16.7  76  +25  +26  комфорт  1014.6  1010.2         
19:19 18.09 ЮЗ  13 км    5/5 510 м  +21.7  +16.1  70  +25  +29  комфорт    1009.9         
19:53 18.09 З  14 км    5/5 540 м  +21.7  +16.7  73  +26  +28  душно  1014.0  1009.5         
20:53 18.09 З  16 км    5/5 510 м  +22.8  +16.7  68  +27  +29  душно  1013.5  1009.2         
21:53 18.09 З  16 км    2/2 510 м  +22.2  +16.7  71  +27  +29  душно  1013.3  1008.9         
22:53 18.09 З  16 км    2/2 510 м  +22.2  +16.7  71  +27  +29  душно  1012.5  1008.2         
23:53 18.09 З   16 км    2/2 510 м  +21.7  +17.2  76  +26  +28  душно  1012.2  1007.9         
00:53 19.09 З  16 км    5/5 390 м  +20.0  +17.2  84  +22  +23  комфорт  1012.2  1007.9         
01:06 19.09 З   16 км    8/8 390 м  +20.0  +17.2  84  +22  +23  комфорт    1007.9         
01:53 19.09 З  16 км    10/10 360 м  +19.4  +17.2  87  +21  +21  комфорт  1012.3  1007.9         
02:53 19.09 З   16 км    10/10 390 м  +19.4  +16.7  84  +21  +21  комфорт  1012.6  1008.2         
03:41 19.09 З  16 км    10/10 450 м  +19.4  +16.7  84  +21  +21  комфорт    1008.5         
03:53 19.09 нст  16 км    10/10 480 м  +19.4  +16.7  84  +22  +22  комфорт  1013.0  1008.5         
04:53 19.09 ЮЗ  16 км    8/8 510 м  +18.9  +16.1  84  +20  +20    1012.9  1008.5         
05:53 19.09 З  16 км    8/8 480 м  +18.9  +16.1  84  +20  +20    1013.1  1008.9         
06:53 19.09 З  16 км    10/10 480 м  +18.9  +16.1  84  +20  +20    1013.4  1008.9         
07:53 19.09 ЮЗ  16 км    10/10 480 м  +18.9  +16.1  84  +21  +21  комфорт  1013.1  1008.9         
08:53 19.09 Ю  16 км    10/10 480 м  +19.0  +16.0  83  +21  +21  комфорт  1012.8  1008.5         
09:53 19.09 штиль  16 км    10/10 450 м  +18.9  +16.1  84  +20  +20    1012.7  1008.5         
10:53 19.09 штиль  16 км    10/10 450 м  +19.4  +16.1  81  +21  +21  комфорт  1012.5  1008.2         
11:53 19.09 ЮВ  16 км    10/10 450 м  +19.0  +16.0  83  +21  +21  комфорт  1012.1  1007.9  +18.9       
12:53 19.09 СЗ  16 км    10/10 360 м  +19.4  +16.1  81  +22  +22  комфорт  1012.7  1008.2         
13:53 19.09 штиль  13 км    10/10 420 м  +20.0  +16.1  78  +22  +22  комфорт  1013.1  1008.5         
14:34 19.09 штиль  13 км    10/10 450 м  +20.0  +16.1  78  +22  +22  комфорт    1008.9         
14:53 19.09 штиль  13 км    10/10 630 м  +21.0  +16.0  73  +24  +24  комфорт  1013.4  1008.9         
15:53 19.09 Ю  16 км    10/10 660 м  +21.1  +16.1  73  +24  +24  комфорт  1013.5  1009.2         
16:53 19.09 З   13 км    10/10 750 м  +21.1  +16.1  73  +24  +24  комфорт  1014.0  1009.5         
17:15 19.09 З  13 км    10/10 690 м  +21.1  +16.1  73  +24  +24  комфорт    1009.5         
17:53 19.09 З   13 км    10/10 750 м  +21.0  +16.0  73  +25  +25  комфорт  1014.0  1009.5  +19.4  +21.7     
18:53 19.09 З  16 км    10/10 720 м  +21.1  +16.1  73  +24  +24  комфорт  1013.6  1009.2         
19:06 19.09 З  16 км    10/10 720 м  +22.0  +16.0  69  +26  +26  душно    1008.9         
19:53 19.09 З  16 км    8/8 690 м  +22.0  +16.0  69  +26  +28  душно  1013.0  1008.5         
20:53 19.09 З  16 км    8/8 900 м  +23.0  +16.0  65  +27  +29  душно  1012.3  1007.9         
21:53 19.09 З  16 км    5/5 960 м  +23.3  +16.1  64  +28  +31  душно  1011.8  1007.5         
22:53 19.09 ЮЗ  16 км    2/2 1260 м  +23.3  +16.7  66  +28  +31  душно  1011.4  1006.8         
23:53 19.09 З  16 км    2/2 1200 м  +22.2  +16.7  71  +27  +29  душно  1011.2  1006.8         
00:53 20.09 З  16 км    2/2 420 м  +20.6  +17.2  81  +24  +25  комфорт  1011.1  1006.5         
01:53 20.09 З  16 км    2/2 450 м  +20.0  +16.1  78  +22  +22  комфорт  1011.1  1006.5         
02:53 20.09 З   16 км    ясно  +19.4  +17.2  87  +21  +21  комфорт  1011.3  1006.8         
03:53 20.09 З  16 км    ясно  +19.4  +17.2  87  +21  +21  комфорт  1011.7  1007.2         
04:53 20.09 З   16 км    2/2 1500 м  +19.4  +16.7  84  +21  +21  комфорт  1011.7  1007.2         
05:53 20.09 ЮЗ  16 км    2/2 900 м  +19.4  +16.1  81  +21  +21  комфорт  1011.8  1007.5         
06:53 20.09 Ю  16 км    2/2 870 м  +18.9  +16.7  87  +21  +21  комфорт  1012.0  1007.5         
07:53 20.09 штиль  16 км    2/2 840 м  +18.9  +16.7  87  +20  +20    1011.5  1007.2         

 

Местоположение метеостанции Los Angeles International Airport: широта 33.9381 долгота -118.3889 высота над уровнем моря 38 м.

В архиве по умолчанию представлена погода в Лос-Анджелесе за последние 1-2 суток. Обновление информации о фактической погоде в базе происходит ежечасно! Архивные данные за месяц целиком и за предыдущие месяцы Вы можете получить, выбрав интересующий диапазон дат из раскрывающегося списка и нажав кнопку "Ввод!".

Внимание! Архив погоды МЕТАР в базе сайта в настоящее время начинается c 1 января 2013 г. Нет смысла пытаться выбрать более раннюю дату.

Внимание! Время в таблицах - всемирное. Для получения местного времени необходимо прибавить поправку, которая в Лос-Анджелесе равна -8 ч.

Ветер - указаны скорость ветра в м/с и направление, откуда дует ветер: С - северный, СВ - северо-восточный, В - восточный, ЮВ - юго-восточный, Ю - южный, ЮЗ - юго-западный, З - западный, СЗ - северо-западный.
Видимость - горизонтальная дальность видимости в метрах или километрах. При видимости от 1 до 10 км при отсутствии осадков обычно наблюдается дымка, при ухудшении видимости до 1 км и менее - туман. В сухую погоду видимость может ухудшаться дымом, пылью или мглою.
Атмосферные явления - указаны явления, наблюдавшиеся в указанный момент времени.
Облачность - указаны через наклонную черту верхняя и нижняя облачность в баллах и высота нижней границы облаков в метрах. Внимание: облачность, как и прочие метеорологические величины в США измеряются автоматическими метеостанциями. Указанные значения в баллах носят условный характер и показывают процент времени, в течение которого, в среднем, лазерный луч высотомера отражался от облаков обратно.
T - Температура воздуха - температура, измеренная на высоте 2 м над землей.
Td - Температура точки росы - температура, при понижении до которой содержащийся в воздухе водяной пар достигнет насыщения.
f - Относительная влажность воздуха - влажноcть воздуха, измеренная на высоте 2 м над землей.
Te - Эффективная температура - температура, которую ощущает одетый по сезону человек в тени. Характеристика душности погоды. При расчете учитывается влияние влажности воздуха и скорости ветра на теплоощущения человека.
Tes - Эффективная температура на солнце - температура, которую ощущает человек, с поправкой на солнечный нагрев. Характеристика знойности погоды. Зависит от высоты солнца над горизонтом, облачности и скорости ветра. Ночью, в пасмурную погоду, а также при ветре 12 м/с и более поправка равна нулю.
P - Атмосферное давление - приведенное к уровню моря атмосферное давление.
Po - Атмосферное давление - измеренное на уровне метеостанции атмосферное давление.
Tmin - Минимальная температура - минимум температуры воздуха на высоте 2 м над землей.
Tmax - Максимальная температура - максимум температуры воздуха на высоте 2 м над землей.
R - Количество осадков - Количество выпавших осадков за 3 или 6 часов, мм.
SD - Снежный покров - Высота снежного покрова, см.